Weather in Paranagua

Brazil     25°32′34″S   48°32′26″W
temp.,
°C
wind,
m/s
gust,
m/s
humid.,
%
clouds,
%
prec.,
mm/h
press.,
hPa
HPBL,
m
17 april, sat
sat1700:00+19wnw119598 0.0 101546
03:00+19wnw119599 0.0 101434
06:00+18wnw119798 0.0 101429
09:00+23w117392 0.0 1015397
12:00+26ese216380 0.1 10141204
15:00+24sse2479100 1.6 1012567
18:00+20s2796100 5.3 1013308
21:00+19ssw2398100 10.7 1015175
18 april, sun
sun1800:00+19sw1398100 2.4 1015161
03:00+18wsw129957 3.1 101386
06:00+19sw1298100 0.2 1014115
09:00+20wsw129699 0.3 1016148
12:00+21ssw248875 0.6 1016362
15:00+22s36899 1.4 1014608
18:00+20s24904 1.1 1015229
21:00+18sw249732 2.7 1016185
19 april, mon
mon1900:00+18wsw129865 0.6 1016102
03:00+18wsw119899 0.8 101574
06:00+18wsw119783 0.3 101663
09:00+21wsw128410 0.3 1018359
12:00+25sse355968 0.1 10171419
15:00+24sse466811 0.6 1016968
18:00+20s12881 0.6 1016145
21:00+18wsw129724 0.9 101774
20 april, tue
tue2000:00+17wsw129862 0.2 101785
03:00+18wsw129782 0.4 101691
06:00+18w119593 0.3 101669
09:00+20sw1185100 0.3 1018187
12:00+25sse236177 0.1 10181340
15:00+24se346427 0.1 10161004
18:00+19s11920 0.4 101750
21:00+18sw129624 1.1 101898
21 april, wed
wed2100:00+17wsw129851 0.5 101871
03:00+17w119962 0.6 101763
06:00+17wsw119881 0.1 101767
09:00+20sw128768 0.3 1019264
12:00+22sse23853 1.2 1017668
15:00+22se23814 2.6 1015780
18:00+19ssw11940 1.0 101695
21:00+17w119732 1.1 101751